| time (UTC) | temp F | wind direction | speed MPH | gust MPH | rain 1hr in | rain 24hr in | rain mn in | humidity % | barometer mb |
| 20260902163040 | 85 | 120 | 0.0 | 3.0 | 0.00 | 0.00 | 0.00 | 54 | 1019.3 |
| 20260902162539 | 85 | 84 | 0.0 | 3.0 | 0.00 | 0.00 | 0.00 | 54 | 1019.3 |
| 20260902162039 | 86 | 356 | 0.0 | 3.0 | 0.00 | 0.00 | 0.00 | 53 | 1019.3 |
| 20260902161540 | 87 | 20 | 1.0 | 3.0 | 0.00 | 0.00 | 0.00 | 50 | 1019.4 |
| 20260902161038 | 88 | 113 | 0.0 | 2.0 | 0.00 | 0.00 | 0.00 | 49 | 1019.4 |
| 20260902160538 | 88 | 134 | 0.0 | 0.0 | 0.00 | 0.00 | 0.00 | 52 | 1019.4 |
| 20260902160047 | 87 | 134 | 0.0 | 1.0 | 0.00 | 0.00 | 0.00 | 52 | 1019.4 |
| 20260902155537 | 86 | 149 | 0.0 | 1.0 | 0.00 | 0.00 | 0.00 | 54 | 1019.5 |
| 20260902155040 | 84 | 112 | 0.0 | 2.0 | 0.00 | 0.00 | 0.00 | 53 | 1019.4 |
| 20260902154536 | 83 | 86 | 0.0 | 2.0 | 0.00 | 0.00 | 0.00 | 54 | 1019.5 |
| 20260902154036 | 84 | 65 | 0.0 | 2.0 | 0.00 | 0.00 | 0.00 | 52 | 1019.5 |
| 20260902153539 | 84 | 90 | 0.0 | 2.0 | 0.00 | 0.00 | 0.00 | 55 | 1019.5 |
| 20260902153036 | 84 | 136 | 0.0 | 2.0 | 0.00 | 0.00 | 0.00 | 50 | 1019.5 |
| 20260902152536 | 86 | 95 | 0.0 | 2.0 | 0.00 | 0.00 | 0.00 | 52 | 1019.5 |
| 20260902152037 | 88 | 158 | 0.0 | 2.0 | 0.00 | 0.00 | 0.00 | 50 | 1019.5 |
| 20260902151534 | 88 | 158 | 0.0 | 0.0 | 0.00 | 0.00 | 0.00 | 55 | 1019.4 |
| 20260902151036 | 87 | 158 | 0.0 | 1.0 | 0.00 | 0.00 | 0.00 | 55 | 1019.4 |
| 20260902150531 | 87 | 158 | 0.0 | 1.0 | 0.00 | 0.00 | 0.00 | 56 | 1019.3 |
| 20260902150031 | 86 | 158 | 0.0 | 0.0 | 0.00 | 0.00 | 0.00 | 57 | 1019.3 |
| 20260902145530 | 86 | 176 | 0.0 | 0.0 | 0.00 | 0.00 | 0.00 | 56 | 1019.3 |
| 20260902145031 | 86 | 176 | 0.0 | 0.0 | 0.00 | 0.00 | 0.00 | 59 | 1019.4 |
| 20260902144528 | 86 | 176 | 0.0 | 0.0 | 0.00 | 0.00 | 0.00 | 60 | 1019.3 |
| 20260902144026 | 85 | 167 | 0.0 | 2.0 | 0.00 | 0.00 | 0.00 | 60 | 1019.4 |
| 20260902143525 | 84 | 167 | 0.0 | 2.0 | 0.00 | 0.00 | 0.00 | 64 | 1019.4 |
| 20260902143023 | 83 | 198 | 0.0 | 0.0 | 0.00 | 0.00 | 0.00 | 68 | 1019.3 |
| 20260902142522 | 83 | 198 | 0.0 | 1.0 | 0.00 | 0.00 | 0.00 | 65 | 1019.3 |
| 20260902142022 | 83 | 231 | 0.0 | 1.0 | 0.00 | 0.00 | 0.00 | 68 | 1019.2 |
| 20260902141521 | 83 | 169 | 0.0 | 0.0 | 0.00 | 0.00 | 0.00 | 70 | 1019.2 |
| 20260902141020 | 81 | 169 | 0.0 | 1.0 | 0.00 | 0.00 | 0.00 | 73 | 1019.3 |
| 20260902140520 | 81 | 169 | 0.0 | 1.0 | 0.00 | 0.00 | 0.00 | 72 | 1019.2 |
| 20260902140027 | 81 | 204 | 0.0 | 0.0 | 0.00 | 0.00 | 0.00 | 74 | 1019.3 |
| 20260902135516 | 80 | 204 | 0.0 | 0.0 | 0.00 | 0.00 | 0.00 | 74 | 1019.3 |
| 20260902135017 | 80 | 204 | 0.0 | 0.0 | 0.00 | 0.00 | 0.00 | 75 | 1019.4 |
| 20260902134515 | 80 | 204 | 0.0 | 0.0 | 0.00 | 0.00 | 0.00 | 76 | 1019.4 |
| 20260902134013 | 79 | 204 | 0.0 | 0.0 | 0.00 | 0.00 | 0.00 | 78 | 1019.4 |
| 20260902133514 | 78 | 204 | 0.0 | 0.0 | 0.00 | 0.00 | 0.00 | 80 | 1019.5 |
| 20260902133009 | 77 | 204 | 0.0 | 0.0 | 0.00 | 0.00 | 0.00 | 82 | 1019.5 |
| 20260902132511 | 76 | 204 | 0.0 | 0.0 | 0.00 | 0.00 | 0.00 | 85 | 1019.6 |
| 20260902132007 | 75 | 204 | 0.0 | 0.0 | 0.00 | 0.00 | 0.00 | 87 | 1019.7 |
| 20260902131505 | 74 | 204 | 0.0 | 0.0 | 0.00 | 0.00 | 0.00 | 90 | 1019.7 |
| 20260902131005 | 72 | 204 | 0.0 | 0.0 | 0.00 | 0.00 | 0.00 | 92 | 1019.7 |
| 20260902130503 | 72 | 204 | 0.0 | 0.0 | 0.00 | 0.00 | 0.00 | 95 | 1019.7 |
| 20260902130002 | 71 | 204 | 0.0 | 0.0 | 0.00 | 0.00 | 0.00 | 96 | 1019.8 |
| 20260902125501 | 71 | 204 | 0.0 | 0.0 | 0.00 | 0.00 | 0.00 | 95 | 1019.9 |
| 20260902125100 | 70 | 204 | 0.0 | 0.0 | 0.00 | 0.00 | 0.00 | 96 | 1019.8 |
| 20260902124559 | 69 | 204 | 0.0 | 0.0 | 0.00 | 0.00 | 0.00 | 96 | 1019.8 |
| 20260902124056 | 68 | 204 | 0.0 | 0.0 | 0.00 | 0.00 | 0.00 | 96 | 1019.8 |
| 20260902123556 | 67 | 204 | 0.0 | 0.0 | 0.00 | 0.00 | 0.00 | 96 | 1019.9 |
| 20260902123107 | 65 | 204 | 0.0 | 0.0 | 0.00 | 0.00 | 0.00 | 96 | 1019.9 |
| 20260902122557 | 64 | 204 | 0.0 | 0.0 | 0.00 | 0.00 | 0.00 | 96 | 1019.8 |
| 20260902122053 | 64 | 204 | 0.0 | 0.0 | 0.00 | 0.00 | 0.00 | 96 | 1019.8 |
| 20260902121554 | 63 | 204 | 0.0 | 0.0 | 0.00 | 0.00 | 0.00 | 96 | 1019.8 |
| 20260902121054 | 63 | 204 | 0.0 | 0.0 | 0.00 | 0.00 | 0.00 | 96 | 1019.8 |
| 20260902120553 | 63 | 204 | 0.0 | 0.0 | 0.00 | 0.00 | 0.00 | 96 | 1019.8 |
| 20260902120054 | 62 | 204 | 0.0 | 0.0 | 0.00 | 0.00 | 0.00 | 96 | 1019.7 |
| 20260902115552 | 62 | 204 | 0.0 | 0.0 | 0.00 | 0.00 | 0.00 | 96 | 1019.7 |
| 20260902115053 | 62 | 204 | 0.0 | 0.0 | 0.00 | 0.00 | 0.00 | 96 | 1019.6 |
| 20260902114554 | 61 | 204 | 0.0 | 0.0 | 0.00 | 0.00 | 0.00 | 96 | 1019.6 |
| 20260902114051 | 61 | 204 | 0.0 | 0.0 | 0.00 | 0.00 | 0.00 | 96 | 1019.6 |
| 20260902113550 | 61 | 204 | 0.0 | 0.0 | 0.00 | 0.00 | 0.00 | 96 | 1019.6 |
| 20260902113050 | 61 | 204 | 0.0 | 0.0 | 0.00 | 0.00 | 0.00 | 96 | 1019.6 |
| 20260902112550 | 61 | 204 | 0.0 | 0.0 | 0.00 | 0.00 | 0.00 | 96 | 1019.4 |
| 20260902112050 | 61 | 204 | 0.0 | 0.0 | 0.00 | 0.00 | 0.00 | 96 | 1019.4 |
| 20260902111551 | 61 | 204 | 0.0 | 0.0 | 0.00 | 0.00 | 0.00 | 96 | 1019.4 |
| 20260902111047 | 61 | 204 | 0.0 | 0.0 | 0.00 | 0.00 | 0.00 | 96 | 1019.3 |
| 20260902110546 | 61 | 204 | 0.0 | 0.0 | 0.00 | 0.00 | 0.00 | 96 | 1019.3 |
| 20260902110059 | 61 | 204 | 0.0 | 0.0 | 0.00 | 0.00 | 0.00 | 96 | 1019.3 |
| 20260902105545 | 61 | 204 | 0.0 | 0.0 | 0.00 | 0.00 | 0.00 | 96 | 1019.2 |
| 20260902105045 | 61 | 204 | 0.0 | 0.0 | 0.00 | 0.00 | 0.00 | 96 | 1019.1 |
| 20260902104545 | 61 | 204 | 0.0 | 0.0 | 0.00 | 0.00 | 0.00 | 96 | 1019.1 |
| 20260902104044 | 61 | 204 | 0.0 | 0.0 | 0.00 | 0.00 | 0.00 | 96 | 1019.1 |
| 20260902103544 | 61 | 204 | 0.0 | 0.0 | 0.00 | 0.00 | 0.00 | 96 | 1019.1 |
| 20260902103044 | 62 | 204 | 0.0 | 0.0 | 0.00 | 0.00 | 0.00 | 96 | 1019.1 |
| 20260902102547 | 62 | 204 | 0.0 | 0.0 | 0.00 | 0.00 | 0.00 | 96 | 1019.2 |
| 20260902102043 | 62 | 204 | 0.0 | 0.0 | 0.00 | 0.00 | 0.00 | 96 | 1019.2 |
| 20260902101542 | 62 | 204 | 0.0 | 0.0 | 0.00 | 0.00 | 0.00 | 96 | 1019.2 |
| 20260902101041 | 62 | 204 | 0.0 | 0.0 | 0.00 | 0.00 | 0.00 | 96 | 1019.1 |
| 20260902100546 | 62 | 204 | 0.0 | 0.0 | 0.00 | 0.00 | 0.00 | 96 | 1019.1 |
| 20260902100040 | 62 | 204 | 0.0 | 0.0 | 0.00 | 0.00 | 0.00 | 96 | 1019.1 |
| 20260902095546 | 62 | 204 | 0.0 | 0.0 | 0.00 | 0.00 | 0.00 | 96 | 1019.1 |
| 20260902095039 | 62 | 204 | 0.0 | 0.0 | 0.00 | 0.00 | 0.00 | 96 | 1019.1 |
| 20260902094544 | 62 | 204 | 0.0 | 0.0 | 0.00 | 0.00 | 0.00 | 96 | 1019.0 |
| 20260902094039 | 62 | 204 | 0.0 | 0.0 | 0.00 | 0.00 | 0.00 | 96 | 1018.9 |
| 20260902093539 | 62 | 204 | 0.0 | 0.0 | 0.00 | 0.00 | 0.00 | 96 | 1018.9 |
| 20260902093042 | 62 | 204 | 0.0 | 0.0 | 0.00 | 0.00 | 0.00 | 96 | 1019.0 |
| 20260902092540 | 62 | 204 | 0.0 | 0.0 | 0.00 | 0.00 | 0.00 | 96 | 1018.9 |
| 20260902092042 | 62 | 204 | 0.0 | 0.0 | 0.00 | 0.00 | 0.00 | 96 | 1018.9 |
| 20260902091539 | 63 | 204 | 0.0 | 0.0 | 0.00 | 0.00 | 0.00 | 96 | 1018.9 |
| 20260902091038 | 63 | 204 | 0.0 | 0.0 | 0.00 | 0.00 | 0.00 | 96 | 1018.7 |
| 20260902090538 | 63 | 204 | 0.0 | 0.0 | 0.00 | 0.00 | 0.00 | 96 | 1018.8 |
| 20260902090139 | 63 | 204 | 0.0 | 0.0 | 0.00 | 0.00 | 0.00 | 96 | 1018.9 |
| 20260902085536 | 63 | 204 | 0.0 | 0.0 | 0.00 | 0.01 | 0.00 | 96 | 1018.9 |
| 20260902085041 | 62 | 204 | 0.0 | 0.0 | 0.00 | 0.01 | 0.00 | 96 | 1018.9 |
| 20260902084542 | 62 | 204 | 0.0 | 0.0 | 0.00 | 0.01 | 0.00 | 96 | 1018.9 |
| 20260902084035 | 62 | 204 | 0.0 | 0.0 | 0.00 | 0.01 | 0.00 | 96 | 1018.8 |
| 20260902083538 | 62 | 204 | 0.0 | 0.0 | 0.00 | 0.01 | 0.00 | 96 | 1018.9 |
| 20260902083035 | 63 | 204 | 0.0 | 0.0 | 0.00 | 0.01 | 0.00 | 96 | 1018.9 |
| 20260902082535 | 63 | 204 | 0.0 | 0.0 | 0.00 | 0.01 | 0.00 | 96 | 1018.9 |
| 20260902082035 | 63 | 204 | 0.0 | 0.0 | 0.00 | 0.01 | 0.00 | 96 | 1018.8 |
| 20260902081536 | 63 | 204 | 0.0 | 0.0 | 0.00 | 0.01 | 0.00 | 96 | 1018.8 |
| 20260902081034 | 63 | 204 | 0.0 | 0.0 | 0.00 | 0.01 | 0.00 | 96 | 1018.9 |
| 20260902080533 | 63 | 204 | 0.0 | 0.0 | 0.00 | 0.01 | 0.00 | 96 | 1018.9 |
| 20260902080037 | 63 | 204 | 0.0 | 0.0 | 0.00 | 0.01 | 0.00 | 96 | 1018.8 |
| 20260902075537 | 63 | 204 | 0.0 | 0.0 | 0.00 | 0.01 | 0.00 | 96 | 1018.8 |
| 20260902075032 | 63 | 204 | 0.0 | 0.0 | 0.00 | 0.01 | 0.00 | 96 | 1018.8 |
| 20260902074532 | 63 | 204 | 0.0 | 0.0 | 0.00 | 0.01 | 0.00 | 96 | 1018.9 |
| 20260902074032 | 63 | 204 | 0.0 | 0.0 | 0.00 | 0.01 | 0.00 | 96 | 1018.7 |
| 20260902073532 | 63 | 204 | 0.0 | 0.0 | 0.00 | 0.01 | 0.00 | 96 | 1018.6 |
| 20260902073034 | 64 | 204 | 0.0 | 0.0 | 0.00 | 0.01 | 0.00 | 96 | 1018.5 |
| 20260902072531 | 63 | 204 | 0.0 | 0.0 | 0.00 | 0.01 | 0.00 | 96 | 1018.6 |
| 20260902072031 | 63 | 204 | 0.0 | 0.0 | 0.00 | 0.01 | 0.00 | 96 | 1018.6 |
| 20260902071536 | 64 | 204 | 0.0 | 0.0 | 0.00 | 0.01 | 0.00 | 96 | 1018.6 |
| 20260902071033 | 64 | 204 | 0.0 | 0.0 | 0.00 | 0.01 | 0.00 | 96 | 1018.7 |
| 20260902070528 | 64 | 204 | 0.0 | 0.0 | 0.00 | 0.01 | 0.00 | 96 | 1018.7 |
| 20260902070028 | 64 | 204 | 0.0 | 0.0 | 0.00 | 0.01 | 0.00 | 96 | 1018.7 |
| 20260902065529 | 64 | 204 | 0.0 | 0.0 | 0.00 | 0.01 | 0.00 | 96 | 1018.6 |
| 20260902065030 | 64 | 204 | 0.0 | 0.0 | 0.00 | 0.01 | 0.00 | 96 | 1018.7 |
| 20260902064527 | 64 | 204 | 0.0 | 0.0 | 0.00 | 0.01 | 0.00 | 96 | 1018.7 |
| 20260902064027 | 64 | 204 | 0.0 | 0.0 | 0.00 | 0.01 | 0.00 | 96 | 1018.6 |
| 20260902063527 | 64 | 204 | 0.0 | 0.0 | 0.00 | 0.01 | 0.00 | 96 | 1018.6 |
| 20260902063033 | 64 | 204 | 0.0 | 0.0 | 0.00 | 0.01 | 0.00 | 96 | 1018.6 |
| 20260902062527 | 64 | 204 | 0.0 | 0.0 | 0.00 | 0.01 | 0.00 | 96 | 1018.7 |
| 20260902062026 | 64 | 204 | 0.0 | 0.0 | 0.00 | 0.01 | 0.00 | 96 | 1018.6 |
| 20260902061542 | 64 | 204 | 0.0 | 0.0 | 0.00 | 0.01 | 0.00 | 96 | 1018.7 |
| 20260902061026 | 64 | 204 | 0.0 | 0.0 | 0.00 | 0.01 | 0.00 | 96 | 1018.8 |
| 20260902060525 | 64 | 204 | 0.0 | 0.0 | 0.00 | 0.01 | 0.00 | 96 | 1018.8 |
| 20260902060033 | 64 | 204 | 0.0 | 0.0 | 0.00 | 0.01 | 0.00 | 96 | 1018.7 |
| 20260902055524 | 64 | 204 | 0.0 | 0.0 | 0.00 | 0.01 | 0.00 | 96 | 1018.8 |
| 20260902055024 | 64 | 204 | 0.0 | 0.0 | 0.00 | 0.01 | 0.00 | 96 | 1018.7 |
| 20260902054539 | 64 | 204 | 0.0 | 0.0 | 0.00 | 0.01 | 0.00 | 96 | 1018.7 |
| 20260902054023 | 64 | 204 | 0.0 | 0.0 | 0.00 | 0.01 | 0.00 | 96 | 1018.6 |
| 20260902053523 | 64 | 204 | 0.0 | 0.0 | 0.00 | 0.01 | 0.00 | 96 | 1018.5 |
| 20260902053023 | 64 | 204 | 0.0 | 0.0 | 0.00 | 0.01 | 0.00 | 96 | 1018.7 |
| 20260902052521 | 65 | 204 | 0.0 | 0.0 | 0.00 | 0.01 | 0.00 | 96 | 1018.7 |
| 20260902052022 | 65 | 204 | 0.0 | 0.0 | 0.00 | 0.01 | 0.00 | 96 | 1018.6 |
| 20260902051521 | 65 | 204 | 0.0 | 0.0 | 0.00 | 0.01 | 0.00 | 96 | 1018.5 |
| 20260902051019 | 65 | 204 | 0.0 | 0.0 | 0.00 | 0.01 | 0.00 | 96 | 1018.6 |
| 20260902050519 | 65 | 204 | 0.0 | 0.0 | 0.00 | 0.01 | 0.00 | 96 | 1018.6 |
| 20260902050019 | 65 | 204 | 0.0 | 0.0 | 0.00 | 0.01 | 0.00 | 95 | 1018.6 |
| 20260902045518 | 65 | 204 | 0.0 | 0.0 | 0.00 | 0.01 | 0.00 | 95 | 1018.5 |
| 20260902045019 | 65 | 204 | 0.0 | 0.0 | 0.00 | 0.01 | 0.00 | 95 | 1018.4 |
| 20260902044518 | 65 | 204 | 0.0 | 0.0 | 0.00 | 0.01 | 0.00 | 95 | 1018.6 |
| 20260902044017 | 65 | 204 | 0.0 | 0.0 | 0.00 | 0.01 | 0.00 | 95 | 1018.6 |
| 20260902043515 | 65 | 204 | 0.0 | 0.0 | 0.00 | 0.01 | 0.00 | 95 | 1018.6 |
| 20260902043017 | 65 | 204 | 0.0 | 0.0 | 0.00 | 0.01 | 0.00 | 95 | 1018.6 |
| 20260902042516 | 65 | 204 | 0.0 | 0.0 | 0.00 | 0.01 | 0.00 | 95 | 1018.7 |
| 20260902042015 | 66 | 204 | 0.0 | 0.0 | 0.00 | 0.01 | 0.00 | 95 | 1018.6 |
| 20260902041513 | 66 | 204 | 0.0 | 0.0 | 0.00 | 0.01 | 0.00 | 95 | 1018.6 |
| 20260902041014 | 66 | 204 | 0.0 | 0.0 | 0.00 | 0.01 | 0.00 | 95 | 1018.4 |
| 20260902040511 | 66 | 204 | 0.0 | 0.0 | 0.00 | 0.01 | 0.00 | 95 | 1018.6 |
| 20260902040010 | 66 | 204 | 0.0 | 0.0 | 0.00 | 0.01 | 0.00 | 95 | 1018.6 |
| 20260902035510 | 66 | 204 | 0.0 | 0.0 | 0.00 | 0.01 | 0.01 | 95 | 1018.5 |
| 20260902035014 | 66 | 204 | 0.0 | 0.0 | 0.00 | 0.01 | 0.01 | 95 | 1018.6 |
| 20260902034510 | 66 | 204 | 0.0 | 0.0 | 0.00 | 0.01 | 0.01 | 95 | 1018.5 |
| 20260902034010 | 66 | 204 | 0.0 | 0.0 | 0.00 | 0.01 | 0.01 | 95 | 1018.6 |
| 20260902033509 | 66 | 204 | 0.0 | 0.0 | 0.00 | 0.01 | 0.01 | 95 | 1018.5 |
| 20260902033012 | 66 | 204 | 0.0 | 0.0 | 0.00 | 0.01 | 0.01 | 95 | 1018.6 |
| 20260902032512 | 66 | 204 | 0.0 | 0.0 | 0.00 | 0.01 | 0.01 | 95 | 1018.5 |
| 20260902032009 | 66 | 108 | 0.0 | 0.0 | 0.00 | 0.01 | 0.01 | 95 | 1018.6 |
| 20260902031509 | 66 | 108 | 0.0 | 0.0 | 0.00 | 0.01 | 0.01 | 94 | 1018.6 |
| 20260902031008 | 67 | 108 | 0.0 | 0.0 | 0.00 | 0.01 | 0.01 | 94 | 1018.8 |
| 20260902030508 | 67 | 108 | 0.0 | 0.0 | 0.00 | 0.01 | 0.01 | 94 | 1018.7 |
| 20260902030008 | 67 | 108 | 0.0 | 0.0 | 0.00 | 0.01 | 0.01 | 94 | 1018.7 |
| 20260902025508 | 67 | 108 | 0.0 | 0.0 | 0.00 | 0.01 | 0.01 | 94 | 1018.7 |
| 20260902025008 | 67 | 108 | 0.0 | 0.0 | 0.00 | 0.01 | 0.01 | 94 | 1018.6 |
| 20260902024507 | 67 | 108 | 0.0 | 0.0 | 0.00 | 0.01 | 0.01 | 94 | 1018.7 |
| 20260902024009 | 67 | 108 | 0.0 | 0.0 | 0.00 | 0.01 | 0.01 | 93 | 1018.6 |
| 20260902023509 | 67 | 108 | 0.0 | 0.0 | 0.00 | 0.01 | 0.01 | 93 | 1018.6 |
| 20260902023007 | 68 | 108 | 0.0 | 0.0 | 0.00 | 0.01 | 0.01 | 93 | 1018.6 |
| 20260902022507 | 68 | 108 | 0.0 | 0.0 | 0.00 | 0.01 | 0.01 | 93 | 1018.5 |
| 20260902022006 | 68 | 108 | 0.0 | 0.0 | 0.00 | 0.01 | 0.01 | 93 | 1018.5 |
| 20260902021514 | 68 | 108 | 0.0 | 0.0 | 0.00 | 0.01 | 0.01 | 93 | 1018.4 |
| 20260902021005 | 68 | 108 | 0.0 | 0.0 | 0.00 | 0.01 | 0.01 | 93 | 1018.3 |
| 20260902020505 | 69 | 109 | 0.0 | 1.0 | 0.00 | 0.01 | 0.01 | 93 | 1018.2 |
| 20260902020003 | 69 | 108 | 0.0 | 1.0 | 0.00 | 0.01 | 0.01 | 93 | 1018.2 |
| 20260902015503 | 69 | 134 | 0.0 | 1.0 | 0.00 | 0.01 | 0.01 | 93 | 1018.3 |
| 20260902015003 | 69 | 109 | 0.0 | 1.0 | 0.00 | 0.01 | 0.01 | 92 | 1018.2 |
| 20260902014507 | 69 | 109 | 0.0 | 0.0 | 0.00 | 0.01 | 0.01 | 92 | 1018.1 |
| 20260902014003 | 69 | 109 | 0.0 | 0.0 | 0.00 | 0.01 | 0.01 | 92 | 1018.1 |
| 20260902013503 | 69 | 109 | 0.0 | 0.0 | 0.00 | 0.01 | 0.01 | 92 | 1018.0 |
| 20260902013003 | 69 | 109 | 0.0 | 0.0 | 0.00 | 0.01 | 0.01 | 92 | 1018.0 |
| 20260902012502 | 70 | 109 | 0.0 | 1.0 | 0.00 | 0.01 | 0.01 | 91 | 1017.9 |
| 20260902012002 | 70 | 109 | 0.0 | 1.0 | 0.00 | 0.01 | 0.01 | 91 | 1018.1 |
| 20260902011502 | 70 | 109 | 0.0 | 0.0 | 0.00 | 0.01 | 0.01 | 91 | 1018.2 |
| 20260902011001 | 70 | 5 | 0.0 | 0.0 | 0.00 | 0.01 | 0.01 | 90 | 1017.9 |
| 20260902010502 | 70 | 5 | 0.0 | 0.0 | 0.00 | 0.01 | 0.01 | 90 | 1017.9 |
| 20260902010001 | 71 | 6 | 0.0 | 0.0 | 0.00 | 0.01 | 0.01 | 90 | 1017.8 |
| 20260902005502 | 71 | 6 | 0.0 | 0.0 | 0.00 | 0.01 | 0.01 | 89 | 1017.7 |
| 20260902005001 | 71 | 5 | 0.0 | 0.0 | 0.00 | 0.01 | 0.01 | 89 | 1017.7 |
| 20260902004503 | 71 | 6 | 0.0 | 0.0 | 0.00 | 0.01 | 0.01 | 89 | 1017.6 |
| 20260902004100 | 72 | 6 | 0.0 | 0.0 | 0.00 | 0.01 | 0.01 | 88 | 1017.4 |
| 20260902003559 | 72 | 6 | 0.0 | 0.0 | 0.00 | 0.01 | 0.01 | 88 | 1017.3 |
| 20260902003100 | 72 | 6 | 0.0 | 0.0 | 0.00 | 0.01 | 0.01 | 87 | 1017.4 |
| 20260902002559 | 73 | 6 | 0.0 | 0.0 | 0.00 | 0.01 | 0.01 | 86 | 1017.4 |
| 20260902002059 | 73 | 6 | 0.0 | 0.0 | 0.00 | 0.01 | 0.01 | 85 | 1017.5 |
| 20260902001558 | 74 | 5 | 0.0 | 0.0 | 0.00 | 0.01 | 0.01 | 84 | 1017.6 |
| 20260902001102 | 74 | 6 | 0.0 | 0.0 | 0.00 | 0.01 | 0.01 | 83 | 1017.6 |
| 20260902000557 | 75 | 6 | 0.0 | 0.0 | 0.00 | 0.01 | 0.01 | 83 | 1017.6 |
| 20260902000057 | 75 | 5 | 0.0 | 0.0 | 0.00 | 0.01 | 0.01 | 81 | 1017.7 |
| 20260901235601 | 76 | 6 | 0.0 | 0.0 | 0.00 | 0.01 | 0.01 | 80 | 1017.7 |
| 20260901235057 | 77 | 6 | 0.0 | 0.0 | 0.00 | 0.01 | 0.01 | 79 | 1017.7 |
| 20260901234606 | 77 | 5 | 0.0 | 0.0 | 0.00 | 0.01 | 0.01 | 77 | 1017.7 |
| 20260901234057 | 78 | 6 | 0.0 | 0.0 | 0.00 | 0.01 | 0.01 | 77 | 1017.7 |
| 20260901233557 | 78 | 6 | 0.0 | 0.0 | 0.00 | 0.01 | 0.01 | 76 | 1017.8 |
| 20260901233103 | 78 | 6 | 0.0 | 0.0 | 0.00 | 0.01 | 0.01 | 75 | 1017.8 |
| 20260901232559 | 79 | 6 | 0.0 | 0.0 | 0.00 | 0.01 | 0.01 | 75 | 1017.9 |
| 20260901232056 | 79 | 6 | 0.0 | 1.0 | 0.00 | 0.01 | 0.01 | 73 | 1017.7 |
| 20260901231559 | 79 | 6 | 0.0 | 1.0 | 0.00 | 0.01 | 0.01 | 72 | 1017.7 |
| 20260901231055 | 79 | 5 | 0.0 | 2.0 | 0.00 | 0.01 | 0.01 | 69 | 1017.8 |
| 20260901230555 | 79 | 19 | 0.0 | 2.0 | 0.00 | 0.01 | 0.01 | 69 | 1017.9 |
| 20260901230057 | 80 | 335 | 0.0 | 2.0 | 0.00 | 0.01 | 0.01 | 69 | 1018.0 |
| 20260901225556 | 80 | 4 | 0.0 | 3.0 | 0.00 | 0.02 | 0.01 | 68 | 1017.9 |
| 20260901225055 | 80 | 346 | 0.0 | 4.0 | 0.00 | 0.02 | 0.01 | 68 | 1017.9 |
| 20260901224557 | 80 | 349 | 1.0 | 4.0 | 0.00 | 0.02 | 0.01 | 67 | 1017.9 |
| 20260901224055 | 80 | 18 | 0.0 | 3.0 | 0.00 | 0.02 | 0.01 | 68 | 1017.9 |
| 20260901223555 | 80 | 39 | 0.0 | 4.0 | 0.00 | 0.02 | 0.01 | 67 | 1017.8 |
| 20260901223055 | 80 | 349 | 1.0 | 5.0 | 0.00 | 0.02 | 0.01 | 66 | 1017.8 |
| 20260901222555 | 81 | 23 | 1.0 | 3.0 | 0.00 | 0.02 | 0.01 | 65 | 1017.8 |
| 20260901222054 | 81 | 19 | 0.0 | 5.0 | 0.00 | 0.02 | 0.01 | 66 | 1017.8 |
| 20260901221617 | 82 | 335 | 1.0 | 5.0 | 0.00 | 0.02 | 0.01 | 64 | 1017.7 |
| 20260901221054 | 82 | 15 | 1.0 | 4.0 | 0.00 | 0.02 | 0.01 | 63 | 1017.7 |
| 20260901220553 | 83 | 11 | 0.0 | 5.0 | 0.00 | 0.02 | 0.01 | 64 | 1017.7 |
| 20260901220100 | 83 | 18 | 1.0 | 5.0 | 0.00 | 0.02 | 0.01 | 61 | 1017.7 |
| 20260901215552 | 83 | 354 | 0.0 | 1.0 | 0.00 | 0.02 | 0.01 | 66 | 1017.7 |
| 20260901215057 | 82 | 354 | 0.0 | 6.0 | 0.00 | 0.02 | 0.01 | 65 | 1017.7 |
| 20260901214551 | 82 | 354 | 1.0 | 6.0 | 0.00 | 0.02 | 0.01 | 63 | 1017.8 |
| 20260901214050 | 82 | 347 | 0.0 | 7.0 | 0.00 | 0.02 | 0.01 | 62 | 1017.8 |
| 20260901213551 | 82 | 306 | 3.0 | 7.0 | 0.00 | 0.02 | 0.01 | 59 | 1017.8 |
| 20260901213107 | 82 | 350 | 1.0 | 5.0 | 0.00 | 0.02 | 0.01 | 59 | 1017.9 |
| 20260901212551 | 82 | 19 | 2.0 | 5.0 | 0.00 | 0.02 | 0.01 | 58 | 1017.8 |
| 20260901212050 | 82 | 9 | 0.0 | 5.0 | 0.00 | 0.02 | 0.01 | 58 | 1017.8 |
| 20260901211553 | 83 | 37 | 0.0 | 6.0 | 0.00 | 0.02 | 0.01 | 58 | 1017.9 |
| 20260901211049 | 83 | 20 | 1.0 | 4.0 | 0.00 | 0.02 | 0.01 | 58 | 1018.0 |
| 20260901210548 | 83 | 246 | 0.0 | 4.0 | 0.00 | 0.02 | 0.01 | 58 | 1018.0 |
| 20260901210048 | 83 | 5 | 1.0 | 9.0 | 0.00 | 0.02 | 0.01 | 59 | 1018.1 |
| 20260901205550 | 83 | 349 | 3.0 | 9.0 | 0.00 | 0.02 | 0.01 | 58 | 1018.2 |
| 20260901205049 | 83 | 22 | 2.0 | 7.0 | 0.00 | 0.02 | 0.01 | 55 | 1018.1 |
| 20260901204548 | 84 | 4 | 0.0 | 5.0 | 0.00 | 0.02 | 0.01 | 57 | 1018.1 |
| 20260901204051 | 84 | 347 | 0.0 | 4.0 | 0.00 | 0.02 | 0.01 | 59 | 1018.1 |
| 20260901203547 | 83 | 231 | 0.0 | 4.0 | 0.00 | 0.02 | 0.01 | 59 | 1018.2 |
| 20260901203058 | 84 | 350 | 0.0 | 4.0 | 0.00 | 0.02 | 0.01 | 59 | 1018.1 |
| 20260901202545 | 84 | 20 | 0.0 | 5.0 | 0.00 | 0.02 | 0.01 | 58 | 1018.0 |
| 20260901202044 | 84 | 327 | 1.0 | 5.0 | 0.00 | 0.02 | 0.01 | 56 | 1018.2 |
| 20260901201545 | 84 | 225 | 1.0 | 4.0 | 0.00 | 0.02 | 0.01 | 56 | 1018.2 |
| 20260901201044 | 83 | 341 | 0.0 | 5.0 | 0.00 | 0.02 | 0.01 | 58 | 1018.2 |
| 20260901200543 | 83 | 11 | 2.0 | 6.0 | 0.00 | 0.02 | 0.01 | 56 | 1018.3 |
| 20260901200051 | 83 | 356 | 0.0 | 6.0 | 0.00 | 0.02 | 0.01 | 56 | 1018.3 |
| 20260901195547 | 84 | 340 | 2.0 | 6.0 | 0.00 | 0.02 | 0.01 | 55 | 1018.3 |
| 20260901195042 | 83 | 26 | 0.0 | 4.0 | 0.00 | 0.02 | 0.01 | 57 | 1018.4 |
| 20260901194542 | 82 | 342 | 0.0 | 7.0 | 0.00 | 0.02 | 0.01 | 59 | 1018.4 |
| 20260901194041 | 82 | 337 | 3.0 | 7.0 | 0.00 | 0.02 | 0.01 | 59 | 1018.5 |
| 20260901193540 | 82 | 33 | 2.0 | 8.0 | 0.00 | 0.02 | 0.01 | 59 | 1018.5 |
| 20260901193056 | 82 | 23 | 3.0 | 8.0 | 0.00 | 0.02 | 0.01 | 59 | 1018.5 |
| 20260901192543 | 82 | 16 | 2.0 | 8.0 | 0.00 | 0.02 | 0.01 | 58 | 1018.6 |
| 20260901192039 | 82 | 345 | 3.0 | 7.0 | 0.00 | 0.02 | 0.01 | 58 | 1018.7 |
| 20260901191538 | 82 | 91 | 0.0 | 9.0 | 0.00 | 0.02 | 0.01 | 61 | 1018.6 |
| 20260901191036 | 82 | 290 | 3.0 | 9.0 | 0.00 | 0.02 | 0.01 | 60 | 1018.7 |
| 20260901190541 | 82 | 349 | 2.0 | 8.0 | 0.00 | 0.02 | 0.01 | 60 | 1018.7 |
| 20260901190037 | 82 | 330 | 3.0 | 9.0 | 0.00 | 0.02 | 0.01 | 58 | 1018.7 |
| 20260901185537 | 83 | 27 | 4.0 | 8.0 | 0.00 | 0.02 | 0.01 | 59 | 1018.7 |
| 20260901185037 | 83 | 338 | 1.0 | 9.0 | 0.00 | 0.02 | 0.01 | 58 | 1018.8 |
| 20260901184539 | 83 | 7 | 3.0 | 9.0 | 0.00 | 0.02 | 0.01 | 56 | 1018.8 |
| 20260901184036 | 84 | 359 | 1.0 | 7.0 | 0.00 | 0.02 | 0.01 | 58 | 1018.8 |
| 20260901183535 | 84 | 197 | 1.0 | 7.0 | 0.00 | 0.02 | 0.01 | 59 | 1018.8 |
| 20260901183035 | 83 | 87 | 0.0 | 6.0 | 0.00 | 0.02 | 0.01 | 60 | 1018.8 |
| 20260901182534 | 83 | 350 | 1.0 | 7.0 | 0.00 | 0.02 | 0.01 | 58 | 1018.8 |
| 20260901182034 | 83 | 5 | 0.0 | 1.0 | 0.00 | 0.02 | 0.01 | 62 | 1018.9 |
| 20260901181537 | 82 | 1 | 0.0 | 3.0 | 0.00 | 0.02 | 0.01 | 63 | 1018.8 |
| 20260901181033 | 82 | 1 | 1.0 | 3.0 | 0.00 | 0.02 | 0.01 | 59 | 1018.9 |
| 20260901180534 | 83 | 18 | 0.0 | 8.0 | 0.00 | 0.02 | 0.01 | 60 | 1018.9 |
| 20260901180033 | 84 | 29 | 2.0 | 8.0 | 0.00 | 0.02 | 0.01 | 57 | 1018.8 |
| 20260901175531 | 84 | 351 | 1.0 | 6.0 | 0.00 | 0.02 | 0.01 | 56 | 1018.8 |
| 20260901175032 | 84 | 214 | 0.0 | 4.0 | 0.00 | 0.02 | 0.01 | 58 | 1018.9 |
| 20260901174532 | 84 | 1 | 0.0 | 5.0 | 0.00 | 0.02 | 0.01 | 60 | 1018.9 |
| 20260901174031 | 83 | 86 | 0.0 | 6.0 | 0.00 | 0.02 | 0.01 | 60 | 1019.0 |
| 20260901173528 | 83 | 343 | 2.0 | 6.0 | 0.00 | 0.02 | 0.01 | 57 | 1019.1 |
| 20260901173027 | 83 | 284 | 0.0 | 6.0 | 0.00 | 0.02 | 0.01 | 60 | 1019.0 |
| 20260901172526 | 82 | 4 | 2.0 | 6.0 | 0.00 | 0.02 | 0.01 | 60 | 1019.2 |
| 20260901172026 | 82 | 345 | 1.0 | 4.0 | 0.00 | 0.02 | 0.01 | 61 | 1019.2 |
| 20260901171529 | 81 | 20 | 0.0 | 9.0 | 0.00 | 0.02 | 0.01 | 63 | 1019.3 |
| 20260901171025 | 81 | 337 | 4.0 | 10.0 | 0.00 | 0.02 | 0.01 | 62 | 1019.2 |
| 20260901170526 | 81 | 350 | 6.0 | 10.0 | 0.00 | 0.02 | 0.01 | 61 | 1019.3 |
| 20260901170025 | 81 | 53 | 4.0 | 10.0 | 0.00 | 0.02 | 0.01 | 60 | 1019.3 |
| 20260901165524 | 81 | 27 | 4.0 | 11.0 | 0.00 | 0.02 | 0.01 | 61 | 1019.4 |
| 20260901165026 | 81 | 318 | 4.0 | 11.0 | 0.00 | 0.02 | 0.01 | 60 | 1019.5 |
| 20260901164525 | 82 | 38 | 3.0 | 8.0 | 0.00 | 0.02 | 0.01 | 60 | 1019.5 |
| 20260901164024 | 83 | 340 | 1.0 | 7.0 | 0.00 | 0.02 | 0.01 | 59 | 1019.5 |
| 20260901163522 | 82 | 335 | 0.0 | 4.0 | 0.00 | 0.02 | 0.01 | 64 | 1019.6 |